Location: Newark
(21.1200°N, 73.4000°E)
Time: 03:12:54
(UTC+00:00)

Courier 1B Rocket - All Passes

Search period start: 18 January 2020 00:00
Search period end: 28 January 2020 00:00
Orbit: 920 x 1202 km, 28.2° (Epoch: 17 January)

Date Brightness Start Highest point End Pass type
(mag) Time Alt. Az. Time Alt. Az. Time Alt. Az.
18 Jan - 05:06:28 10° SSE 05:07:51 11° SSE 05:09:13 10° SE daylight
18 Jan - 06:54:54 10° SW 07:01:16 38° SSE 07:07:15 10° E daylight
18 Jan - 08:47:59 10° WSW 08:54:40 80° NNW 09:01:00 10° ENE daylight
18 Jan - 10:42:23 10° WNW 10:48:29 46° N 10:54:26 10° ENE daylight
18 Jan - 12:36:28 10° WNW 12:42:29 49° N 12:48:35 10° E daylight
18 Jan - 14:29:53 10° WNW 14:36:10 84° SSW 14:42:42 10° ESE visible
18 Jan - 16:24:03 10° W 16:29:27 28° SSW 16:35:06 10° SSE visible
19 Jan - 05:54:22 10° SSW 06:00:13 27° SSE 06:05:44 10° E daylight
19 Jan - 07:46:42 10° WSW 07:53:36 78° SSE 08:00:02 10° ENE daylight
19 Jan - 09:40:55 10° W 09:47:17 52° N 09:53:23 10° ENE daylight
19 Jan - 11:35:18 10° WNW 11:41:18 45° N 11:47:15 10° ENE daylight
19 Jan - 13:28:54 10° WNW 13:35:08 75° NNE 13:41:30 10° ESE visible
19 Jan - 15:22:36 10° W 15:28:28 41° SSW 15:34:36 10° SE visible
19 Jan - 17:19:56 10° SW 17:21:44 11° SSW 17:23:35 10° SSW night (unlit)
20 Jan - 04:54:18 10° S 04:59:07 19° SSE 05:03:42 10° ESE daylight
20 Jan - 06:45:34 10° SW 06:52:31 57° SSE 06:58:58 10° ENE daylight
20 Jan - 08:39:24 10° W 08:46:06 63° NNW 08:52:25 10° ENE daylight
20 Jan - 10:33:58 10° WNW 10:40:05 44° N 10:46:01 10° ENE daylight
20 Jan - 12:27:51 10° WNW 12:34:03 59° NNE 12:40:13 10° E daylight
20 Jan - 14:21:23 10° WNW 14:27:30 59° SSW 14:33:49 10° SE visible
20 Jan - 16:16:35 10° WSW 16:20:42 18° SSW 16:24:57 10° S visible
21 Jan - 03:55:20 10° S 03:57:56 12° SSE 04:00:28 10° SE daylight
21 Jan - 05:44:39 10° SW 05:51:25 41° SSE 05:57:45 10° E daylight
21 Jan - 07:37:56 10° WSW 07:44:57 79° NNW 07:51:29 10° ENE daylight
21 Jan - 09:32:30 10° WNW 09:38:51 46° N 09:44:53 10° ENE daylight
21 Jan - 11:26:44 10° WNW 11:32:54 50° N 11:38:56 10° E daylight
21 Jan - 13:20:18 10° WNW 13:26:32 82° SSW 13:32:52 10° ESE visible
21 Jan - 15:14:36 10° W 15:19:44 27° SSW 15:25:02 10° SSE visible
22 Jan - 04:44:02 10° SSW 04:50:18 29° SSE 04:56:14 10° E daylight
22 Jan - 06:36:33 10° WSW 06:43:48 80° SSE 06:50:31 10° ENE daylight
22 Jan - 08:30:55 10° W 08:37:36 52° N 08:43:51 10° ENE daylight
22 Jan - 10:25:28 10° WNW 10:31:42 45° N 10:37:40 10° ENE daylight
22 Jan - 12:19:13 10° WNW 12:25:32 76° NNE 12:31:47 10° ESE daylight
22 Jan - 14:13:04 10° W 14:18:49 39° SSW 14:24:40 10° SE visible
23 Jan - 03:43:53 10° SSW 03:49:09 20° SSE 03:54:13 10° ESE daylight
23 Jan - 05:35:20 10° SW 05:42:39 60° SSE 05:49:26 10° ENE daylight
23 Jan - 07:29:18 10° W 07:36:21 63° NNW 07:42:54 10° ENE daylight
23 Jan - 09:24:02 10° WNW 09:30:26 45° N 09:36:29 10° ENE daylight
23 Jan - 11:18:05 10° WNW 11:24:26 60° NNE 11:30:36 10° E daylight
23 Jan - 13:11:46 10° WNW 13:17:53 57° SSW 13:24:02 10° SE visible
23 Jan - 15:07:14 10° WSW 15:11:00 16° SSW 15:14:49 10° S visible
24 Jan - 02:44:37 10° S 02:47:56 13° SSE 02:51:11 10° ESE daylight
24 Jan - 04:34:22 10° SW 04:41:28 43° SSE 04:48:10 10° E daylight
24 Jan - 06:27:44 10° WSW 06:35:07 79° NNW 06:41:56 10° ENE daylight
24 Jan - 08:22:27 10° W 08:29:08 47° N 08:35:23 10° ENE daylight
24 Jan - 10:16:51 10° WNW 10:23:16 51° N 10:29:23 10° E daylight
24 Jan - 12:10:34 10° WNW 12:16:57 80° SSW 12:23:11 10° ESE daylight
24 Jan - 14:05:04 10° W 14:10:05 25° SSW 14:15:07 10° SSE visible
25 Jan - 03:33:42 10° SSW 03:40:18 31° SSE 03:46:36 10° E daylight
25 Jan - 05:26:19 10° WSW 05:33:52 82° SSE 05:40:56 10° ENE daylight
25 Jan - 07:20:47 10° W 07:27:49 53° N 07:34:21 10° ENE daylight
25 Jan - 09:15:28 10° WNW 09:22:01 47° N 09:28:10 10° ENE daylight
25 Jan - 11:09:23 10° WNW 11:15:55 77° NNE 11:22:10 10° ESE daylight
25 Jan - 13:03:25 10° W 13:09:11 38° SSW 13:14:54 10° SE visible
26 Jan - 02:33:30 10° SSW 02:39:06 21° SSE 02:44:33 10° ESE daylight
26 Jan - 04:25:04 10° SW 04:32:39 62° SSE 04:39:48 10° ENE daylight
26 Jan - 06:19:06 10° W 06:26:29 63° NNW 06:33:21 10° ENE daylight
26 Jan - 08:13:56 10° WNW 08:20:41 46° N 08:27:00 10° ENE daylight
26 Jan - 10:08:09 10° WNW 10:14:48 62° NNE 10:21:04 10° E daylight
26 Jan - 12:02:00 10° WNW 12:08:16 56° SSW 12:14:21 10° SE daylight
26 Jan - 13:57:45 10° WSW 14:01:19 16° SSW 14:04:53 10° S visible
27 Jan - 01:34:09 10° S 01:37:52 14° SSE 01:41:33 10° ESE daylight
27 Jan - 03:24:04 10° SW 03:31:25 45° SSE 03:38:28 10° E daylight
27 Jan - 05:17:30 10° WSW 05:25:10 78° NNW 05:32:20 10° ENE daylight
27 Jan - 07:12:17 10° W 07:19:19 48° N 07:25:52 10° ENE daylight
27 Jan - 09:06:49 10° WNW 09:13:34 53° N 09:19:53 10° E daylight
27 Jan - 11:00:42 10° WNW 11:07:19 79° SSW 11:13:35 10° ESE daylight
27 Jan - 12:55:23 10° W 13:00:26 25° SSW 13:05:22 10° SSE daylight
